User: anonymous   Login
Location: Skalnate Pleso
(49.1889°N, 20.2450°E)
Time: 10:27:34
(UTC+02:00)
Language:

Iridium 45 - Orbit

View from above orbital plane
View from above orbital plane
View from above satellite
View from above satellite

Ground track
Ground track

The orbit data is extracted from the following two-line orbital elements,

1 25104U 97082A   15089.53786397  .00000365  00000-0  12359-3 0  9996
2 25104 087.0223 259.9415 0002352 094.1818 265.9648 14.34224712904322
Epoch (UTC): 30 March 2015 12:54:31
Eccentricity: 0.0002352
inclination: 87.0223°
perigee height: 776 km
apogee height: 779 km
right ascension of ascending node: 259.9415°
argument of perigee: 94.1818°
revolutions per day: 14.34224712
mean anomaly at epoch: 265.9648°
orbit number at epoch: 90432

The dashed part of the orbit path shows where the satellite is in the earth's shadow,  

DLR